TimeEDT,TemperatureF,Dew PointF,Humidity,Sea Level PressureIn,VisibilityMPH,Wind Direction,Wind SpeedMPH,Gust SpeedMPH,PrecipitationIn,Events,Conditions,WindDirDegrees,DateUTC
12:53 AM,60.1,53.1,78,29.99,10.0,SSW,4.6,-,N/A,,Clear,200,2013-10-16 04:53:00
1:53 AM,60.1,52.0,75,29.99,10.0,SSW,6.9,-,N/A,,Partly Cloudy,200,2013-10-16 05:53:00
2:53 AM,60.1,52.0,75,29.97,10.0,South,4.6,-,N/A,,Overcast,190,2013-10-16 06:53:00
3:53 AM,61.0,51.1,70,29.96,10.0,SSW,5.8,-,N/A,,Overcast,210,2013-10-16 07:53:00
4:53 AM,60.1,52.0,75,29.95,10.0,SSE,3.5,-,0.00,Rain,Light Rain,160,2013-10-16 08:53:00
5:27 AM,60.8,51.8,72,29.97,10.0,WSW,4.6,-,0.00,Rain,Light Rain,250,2013-10-16 09:27:00
5:46 AM,59.0,53.6,82,29.96,10.0,South,10.4,-,0.01,Rain,Light Rain,190,2013-10-16 09:46:00
5:53 AM,59.0,53.1,81,29.96,10.0,South,9.2,-,0.01,Rain,Light Rain,180,2013-10-16 09:53:00
6:00 AM,57.2,53.6,88,29.97,10.0,SSW,8.1,-,0.00,Rain,Light Rain,200,2013-10-16 10:00:00
6:36 AM,57.2,55.4,94,29.97,9.0,South,8.1,-,0.02,Rain,Light Rain,170,2013-10-16 10:36:00
6:53 AM,57.9,55.0,90,29.96,9.0,South,8.1,-,0.03,Rain,Light Rain,170,2013-10-16 10:53:00
7:03 AM,57.2,55.4,94,29.97,10.0,South,6.9,-,0.00,Rain,Light Rain,180,2013-10-16 11:03:00
7:53 AM,55.9,55.0,97,29.97,6.0,South,6.9,-,0.04,Rain,Light Rain,170,2013-10-16 11:53:00
8:45 AM,55.4,55.4,100,29.97,3.0,South,6.9,-,0.07,Rain,Rain,170,2013-10-16 12:45:00
8:53 AM,55.9,55.0,97,29.98,3.0,South,5.8,-,0.08,Rain,Light Rain,180,2013-10-16 12:53:00
9:03 AM,55.4,55.4,100,29.98,4.0,South,8.1,-,0.01,Rain,Light Rain,190,2013-10-16 13:03:00
9:11 AM,55.4,55.4,100,29.98,5.0,South,8.1,-,0.01,Rain,Light Rain,180,2013-10-16 13:11:00
9:31 AM,55.4,55.4,100,29.98,4.0,South,6.9,-,0.03,Rain,Light Rain,170,2013-10-16 13:31:00
9:43 AM,55.4,55.4,100,29.98,4.0,SSE,6.9,-,0.04,Rain,Light Rain,160,2013-10-16 13:43:00
9:53 AM,55.9,55.0,97,29.98,4.0,South,9.2,-,0.05,Rain,Light Rain,170,2013-10-16 13:53:00
10:02 AM,55.4,55.4,100,29.97,5.0,SSE,8.1,-,0.00,Rain,Light Rain,160,2013-10-16 14:02:00
10:29 AM,55.4,55.4,100,29.97,7.0,South,6.9,-,0.01,Rain,Light Rain,180,2013-10-16 14:29:00
10:53 AM,57.0,55.9,96,29.97,4.0,South,6.9,-,0.03,Rain,Light Rain,170,2013-10-16 14:53:00
11:49 AM,57.2,57.2,100,29.95,8.0,SSE,5.8,-,0.00,,Overcast,150,2013-10-16 15:49:00
11:53 AM,57.9,57.0,97,29.96,7.0,South,6.9,-,0.00,Rain,Light Rain,170,2013-10-16 15:53:00
12:53 PM,59.0,57.9,96,29.95,9.0,South,6.9,-,0.00,,Overcast,190,2013-10-16 16:53:00
1:53 PM,61.0,59.0,93,29.93,10.0,South,6.9,-,0.01,,Overcast,190,2013-10-16 17:53:00
2:27 PM,60.8,57.2,88,29.92,10.0,SSW,10.4,-,N/A,,Overcast,200,2013-10-16 18:27:00
2:53 PM,61.0,59.0,93,29.92,10.0,SSW,6.9,-,N/A,,Overcast,210,2013-10-16 18:53:00
3:53 PM,61.0,59.0,93,29.91,6.0,South,8.1,-,0.00,Rain,Light Rain,190,2013-10-16 19:53:00
4:53 PM,62.1,60.1,93,29.90,10.0,SSW,8.1,-,0.00,Rain,Light Rain,200,2013-10-16 20:53:00
5:53 PM,62.1,60.1,93,29.90,4.0,SSW,9.2,-,0.01,,Overcast,210,2013-10-16 21:53:00
6:53 PM,62.1,60.1,93,29.90,6.0,SW,10.4,20.7,N/A,,Overcast,230,2013-10-16 22:53:00
7:05 PM,62.6,60.8,94,29.90,5.0,SW,10.4,-,N/A,,Overcast,220,2013-10-16 23:05:00
7:53 PM,62.1,60.1,93,29.91,5.0,SW,12.7,-,N/A,,Overcast,220,2013-10-16 23:53:00
8:53 PM,62.1,60.1,93,29.91,5.0,SW,12.7,19.6,0.00,,Overcast,220,2013-10-17 00:53:00
9:53 PM,62.1,60.1,93,29.92,5.0,SW,10.4,-,N/A,,Overcast,220,2013-10-17 01:53:00
10:10 PM,62.6,60.8,94,29.92,5.0,SW,8.1,-,N/A,,Overcast,220,2013-10-17 02:10:00
10:53 PM,62.1,60.1,93,29.93,6.0,SW,9.2,-,N/A,,Overcast,230,2013-10-17 02:53:00
11:41 PM,62.6,60.8,94,29.92,6.0,SW,6.9,-,N/A,,Overcast,220,2013-10-17 03:41:00
11:53 PM,62.1,60.1,93,29.92,6.0,WSW,4.6,-,N/A,,Overcast,240,2013-10-17 03:53:00